When you browse on this site, cookies collect data to enhance your experience and personalize the content and advertising you see.
Visit our Privacy Policy to learn more. By continuing to use the site, you agree to this use of cookies and data.
  • In United Kingdom
  • List of Countries
  • For 7 days
  • Water Temperature
  • Weather Map
  • Weather Widgets
  • user-avatar
    Login

    Hourly Weather Birmingham

    Today, 2 June, Tuesday

    Time Temperature Precipitation Wind Pressure Humidity
    00:00 +10°C° 0 mm 2 mps 754 mmHg 79%
    01:00 +10°C° 0 mm 2 mps 754 mmHg 81%
    02:00 +9°C° 0 mm 2 mps 754 mmHg 83%
    03:00 +9°C° 0 mm 1 mps 754 mmHg 85%
    04:00 +10°C° 0 mm 1 mps 753 mmHg 82%
    05:00 +11°C° 0 mm 1 mps 753 mmHg 79%
    06:00 +12°C° 0 mm 1 mps 753 mmHg 77%
    07:00 +14°C° 0 mm 1 mps 753 mmHg 70%
    08:00 +15°C° 0 mm 1 mps 753 mmHg 63%
    09:00 +17°C° 0 mm 2 mps 753 mmHg 56%
    10:00 +18°C° 0 mm 2 mps 753 mmHg 54%
    11:00 +19°C° 0 mm 2 mps 752 mmHg 51%
    12:00 +21°C° 0 mm 2 mps 752 mmHg 51%
    13:00 +21°C° 0 mm 2 mps 751 mmHg 49%
    14:00 +21°C° 0 mm 2 mps 751 mmHg 48%
    15:00 +23°C° 0 mm 2 mps 750 mmHg 47%
    16:00 +23°C° 0 mm 2 mps 750 mmHg 52%
    17:00 +21°C° 0 mm 2 mps 749 mmHg 57%
    18:00 +21°C° 0 mm 2 mps 749 mmHg 62%
    19:00 +19°C° 0 mm 2 mps 748 mmHg 65%
    20:00 +17°C° 0 mm 2 mps 748 mmHg 69%
    21:00 +15°C° 0 mm 2 mps 748 mmHg 72%
    22:00 +15°C° 0 mm 2 mps 748 mmHg 69%
    23:00 +15°C° 0 mm 2 mps 747 mmHg 66%

    Tomorrow, 3 June, Wednesday

    Time Temperature Precipitation Wind Pressure Humidity
    00:00 +14°C° 0 mm 2 mps 747 mmHg 63%
    01:00 +14°C° 0 mm 2 mps 746 mmHg 63%
    02:00 +14°C° 0 mm 2 mps 746 mmHg 63%
    03:00 +14°C° 0 mm 1 mps 745 mmHg 63%
    04:00 +14°C° 0 mm 2 mps 745 mmHg 67%
    05:00 +14°C° 0 mm 2 mps 745 mmHg 72%
    06:00 +14°C° 0 mm 2 mps 744 mmHg 76%
    07:00 +14°C° 0.1 mm 3 mps 744 mmHg 76%
    08:00 +14°C° 0.1 mm 3 mps 744 mmHg 76%
    09:00 +14°C° 0.1 mm 3 mps 744 mmHg 77%
    10:00 +13°C° 0.3 mm 4 mps 744 mmHg 80%
    11:00 +13°C° 0.3 mm 4 mps 744 mmHg 83%
    12:00 +12°C° 0.3 mm 5 mps 744 mmHg 85%
    13:00 +12°C° 0.2 mm 5 mps 744 mmHg 85%
    14:00 +12°C° 0.2 mm 5 mps 744 mmHg 84%
    15:00 +12°C° 0.2 mm 4 mps 744 mmHg 84%
    16:00 +12°C° 0 mm 5 mps 743 mmHg 83%
    17:00 +12°C° 0 mm 5 mps 743 mmHg 82%
    18:00 +11°C° 0 mm 6 mps 743 mmHg 81%
    19:00 +10°C° 0 mm 5 mps 743 mmHg 80%
    20:00 +11°C° 0 mm 4 mps 744 mmHg 79%
    21:00 +11°C° 0 mm 4 mps 744 mmHg 78%
    22:00 +10°C° 0 mm 3 mps 744 mmHg 78%
    23:00 +10°C° 0 mm 3 mps 743 mmHg 77%

    Day after tomorrow, 4 June, Thursday

    Time Temperature Precipitation Wind Pressure Humidity
    00:00 +10°C° 0 mm 3 mps 743 mmHg 77%
    01:00 +10°C° 0 mm 3 mps 743 mmHg 80%
    02:00 +9°C° 0 mm 3 mps 742 mmHg 82%
    03:00 +9°C° 0 mm 3 mps 742 mmHg 85%
    04:00 +9°C° 0.2 mm 3 mps 742 mmHg 87%
    05:00 +8°C° 0.2 mm 4 mps 742 mmHg 88%
    06:00 +8°C° 0.2 mm 4 mps 742 mmHg 90%
    07:00 +10°C° 0.2 mm 3 mps 741 mmHg 85%
    08:00 +11°C° 0.2 mm 3 mps 741 mmHg 80%
    09:00 +12°C° 0.2 mm 3 mps 741 mmHg 76%
    10:00 +12°C° 0.2 mm 3 mps 741 mmHg 74%
    11:00 +12°C° 0.2 mm 4 mps 740 mmHg 73%
    12:00 +13°C° 0.2 mm 5 mps 740 mmHg 72%
    13:00 +13°C° 0.1 mm 5 mps 740 mmHg 67%
    14:00 +14°C° 0.1 mm 6 mps 739 mmHg 63%
    15:00 +14°C° 0.1 mm 6 mps 739 mmHg 59%
    16:00 +14°C° 0.1 mm 6 mps 739 mmHg 64%
    17:00 +13°C° 0.1 mm 5 mps 738 mmHg 69%
    18:00 +13°C° 0.1 mm 5 mps 738 mmHg 73%
    19:00 +11°C° 0.1 mm 4 mps 738 mmHg 78%
    20:00 +10°C° 0.1 mm 4 mps 738 mmHg 84%
    21:00 +9°C° 0.1 mm 3 mps 738 mmHg 89%
    22:00 +8°C° 0 mm 3 mps 737 mmHg 89%
    23:00 +8°C° 0 mm 3 mps 737 mmHg 90%

    5 June, Friday

    Time Temperature Precipitation Wind Pressure Humidity
    00:00 +8°C° 0 mm 3 mps 737 mmHg 90%
    01:00 +6°C° 0 mm 4 mps 736 mmHg 90%
    02:00 +6°C° 0 mm 4 mps 736 mmHg 90%
    03:00 +6°C° 0 mm 4 mps 736 mmHg 90%
    04:00 +6°C° 0 mm 5 mps 736 mmHg 88%
    05:00 +7°C° 0 mm 6 mps 736 mmHg 85%
    06:00 +7°C° 0 mm 6 mps 736 mmHg 83%
    07:00 +8°C° 0.1 mm 6 mps 736 mmHg 77%
    08:00 +9°C° 0.1 mm 6 mps 736 mmHg 71%
    09:00 +11°C° 0.1 mm 6 mps 736 mmHg 65%
    10:00 +11°C° 0.1 mm 7 mps 736 mmHg 60%
    11:00 +12°C° 0.1 mm 7 mps 736 mmHg 55%
    12:00 +13°C° 0.1 mm 8 mps 736 mmHg 50%
    13:00 +13°C° 0.2 mm 8 mps 736 mmHg 51%
    14:00 +13°C° 0.2 mm 8 mps 735 mmHg 52%
    15:00 +12°C° 0.2 mm 9 mps 735 mmHg 54%
    16:00 +12°C° 0 mm 8 mps 735 mmHg 55%
    17:00 +11°C° 0 mm 8 mps 735 mmHg 56%
    18:00 +11°C° 0 mm 7 mps 735 mmHg 57%
    19:00 +9°C° 0 mm 6 mps 735 mmHg 61%
    20:00 +8°C° 0 mm 6 mps 736 mmHg 65%
    21:00 +6°C° 0 mm 5 mps 736 mmHg 69%
    22:00 +6°C° 0 mm 5 mps 736 mmHg 72%
    23:00 +5°C° 0 mm 5 mps 736 mmHg 74%

    6 June, Saturday

    Time Temperature Precipitation Wind Pressure Humidity
    00:00 +3°C° 0 mm 5 mps 736 mmHg 77%
    01:00 +3°C° 0 mm 5 mps 736 mmHg 78%
    02:00 +3°C° 0 mm 5 mps 736 mmHg 78%
    03:00 +2°C° 0 mm 6 mps 736 mmHg 79%
    04:00 +3°C° 0 mm 6 mps 736 mmHg 76%
    05:00 +4°C° 0 mm 7 mps 736 mmHg 74%
    06:00 +5°C° 0 mm 8 mps 736 mmHg 71%
    07:00 +6°C° 0 mm 8 mps 736 mmHg 67%
    08:00 +7°C° 0 mm 8 mps 736 mmHg 64%
    09:00 +8°C° 0 mm 9 mps 736 mmHg 60%
    10:00 +8°C° 0 mm 9 mps 736 mmHg 63%
    11:00 +8°C° 0 mm 9 mps 736 mmHg 67%
    12:00 +8°C° 0 mm 9 mps 736 mmHg 70%
    13:00 +8°C° 0.3 mm 9 mps 736 mmHg 74%
    14:00 +7°C° 0.3 mm 8 mps 735 mmHg 78%
    15:00 +7°C° 0.3 mm 8 mps 735 mmHg 82%
    16:00 +7°C° 0.2 mm 8 mps 735 mmHg 83%
    17:00 +7°C° 0.2 mm 8 mps 735 mmHg 83%
    18:00 +7°C° 0.2 mm 8 mps 735 mmHg 83%
    19:00 +8°C° 0.2 mm 7 mps 735 mmHg 84%
    20:00 +8°C° 0.2 mm 7 mps 735 mmHg 85%
    21:00 +8°C° 0.2 mm 7 mps 735 mmHg 86%
    22:00 +8°C° 0.1 mm 6 mps 735 mmHg 88%
    23:00 +8°C° 0.1 mm 6 mps 735 mmHg 89%

    7 June, Sunday

    Time Temperature Precipitation Wind Pressure Humidity
    00:00 +7°C° 0.1 mm 6 mps 735 mmHg 91%
    01:00 +7°C° 0.2 mm 5 mps 735 mmHg 91%
    02:00 +7°C° 0.2 mm 5 mps 735 mmHg 92%
    03:00 +8°C° 0.2 mm 5 mps 735 mmHg 92%
    04:00 +8°C° 0.1 mm 5 mps 735 mmHg 91%
    05:00 +8°C° 0.1 mm 6 mps 735 mmHg 90%
    06:00 +9°C° 0.1 mm 6 mps 735 mmHg 89%
    07:00 +9°C° 0.4 mm 6 mps 736 mmHg 88%
    08:00 +9°C° 0.4 mm 7 mps 736 mmHg 88%
    09:00 +10°C° 0.4 mm 7 mps 736 mmHg 88%
    10:00 +10°C° 0.4 mm 7 mps 737 mmHg 86%
    11:00 +11°C° 0.4 mm 7 mps 737 mmHg 84%
    12:00 +12°C° 0.4 mm 7 mps 737 mmHg 82%
    13:00 +12°C° 1.1 mm 7 mps 737 mmHg 81%
    14:00 +12°C° 1.1 mm 7 mps 738 mmHg 80%
    15:00 +13°C° 1.1 mm 8 mps 738 mmHg 79%
    16:00 +14°C° 0.7 mm 7 mps 738 mmHg 80%
    17:00 +14°C° 0.7 mm 6 mps 738 mmHg 81%
    18:00 +13°C° 0.7 mm 6 mps 739 mmHg 82%
    19:00 +12°C° 0.2 mm 5 mps 739 mmHg 83%
    20:00 +12°C° 0.2 mm 4 mps 740 mmHg 85%
    21:00 +11°C° 0.2 mm 4 mps 740 mmHg 86%
    22:00 +10°C° 0.3 mm 3 mps 740 mmHg 88%
    23:00 +10°C° 0.3 mm 3 mps 740 mmHg 90%
    Show more